IZ3VCM Weather Reports


Display with metric or nautical units.
time (UTC)temp
F
wind
direction
speed
MPH
gust
MPH
rain 1hr
in
rain 24hr
in
rain mn
in
humidity
%
barometer
mb
20260509104503 81 0 0.0 0.0 0.00 0.00 0.00 51 1016.0
20260509103006 79 45 0.0 1.0 0.00 0.00 0.00 54 1016.4
20260509101503 78 314 0.0 1.0 0.00 0.00 0.00 55 1016.5
20260509100006 78 0 0.0 0.0 0.00 0.00 0.00 56 1016.5
20260509094503 79 314 0.0 2.0 0.00 0.00 0.00 56 1016.5
20260509093005 79 0 0.0 0.0 0.00 0.00 0.00 59 1016.6
20260509091503 77 292 1.0 3.0 0.00 0.00 0.00 56 1016.8
20260509090007 78 337 0.0 1.0 0.00 0.00 0.00 59 1016.9
20260509084503 77 0 0.0 0.0 0.00 0.00 0.00 60 1016.9
20260509083006 75 0 0.0 0.0 0.00 0.00 0.00 60 1016.9
20260509081503 76 0 0.0 0.0 0.00 0.00 0.00 59 1017.1
20260509080005 74 203 1.0 4.0 0.00 0.00 0.00 64 1017.0
20260509074503 75 0 0.0 0.0 0.00 0.00 0.00 64 1017.1
20260509073005 73 0 0.0 0.0 0.00 0.00 0.00 68 1017.0
20260509071504 71 0 0.0 0.0 0.00 0.00 0.00 71 1017.2
20260509070006 68 0 0.0 0.0 0.00 0.00 0.00 75 1017.2
20260509064503 67 0 0.0 0.0 0.00 0.00 0.00 78 1017.0
20260508221503 56 0 0.0 0.0 0.00 0.00 0.00 86 1016.2
20260508220006 57 0 0.0 0.0 0.00 0.00 0.00 85 1016.0
20260508214504 57 0 0.0 0.0 0.00 0.00 0.00 84 1016.0
20260508213006 58 0 0.0 0.0 0.00 0.00 0.00 83 1015.8
20260508211503 59 0 0.0 0.0 0.00 0.00 0.00 82 1015.9
20260508210007 60 0 0.0 0.0 0.00 0.00 0.00 82 1015.7
20260508204505 60 0 0.0 0.0 0.00 0.00 0.00 80 1015.8
20260508203006 61 0 0.0 0.0 0.00 0.00 0.00 79 1015.7
20260508201504 62 0 0.0 0.0 0.00 0.00 0.00 79 1015.7
20260508200006 62 0 0.0 0.0 0.00 0.00 0.00 78 1015.6
20260508194503 63 0 0.0 0.0 0.00 0.00 0.00 77 1015.4
20260508193006 63 0 0.0 0.0 0.00 0.00 0.00 76 1015.3
20260508191504 64 0 0.0 0.0 0.00 0.00 0.00 76 1015.1
20260508190006 65 0 0.0 0.0 0.00 0.00 0.00 74 1015.1
20260508184505 65 0 0.0 0.0 0.00 0.00 0.00 73 1014.8
20260508183005 66 0 0.0 0.0 0.00 0.00 0.00 71 1014.7
20260508181504 67 0 0.0 0.0 0.00 0.00 0.00 69 1014.5
20260508180006 68 181 1.0 4.0 0.00 0.00 0.00 66 1014.3
20260508174504 70 0 0.0 0.0 0.00 0.00 0.00 65 1014.3
20260508173006 71 0 0.0 0.0 0.00 0.00 0.00 64 1014.0
20260508171504 71 171 3.0 6.0 0.00 0.00 0.00 62 1013.8
20260508170006 73 135 1.0 3.0 0.00 0.00 0.00 59 1013.9
20260508164504 74 0 0.0 0.0 0.00 0.00 0.00 58 1014.1
20260508163006 73 142 1.0 5.0 0.00 0.00 0.00 59 1014.0
20260508161504 72 126 0.0 2.0 0.00 0.00 0.00 58 1014.0
20260508160006 73 157 0.0 2.0 0.00 0.00 0.00 58 1013.9
20260508154504 74 181 1.0 6.0 0.00 0.00 0.00 57 1013.8
20260508153006 74 181 1.0 3.0 0.00 0.00 0.00 55 1013.9
20260508151504 75 0 0.0 0.0 0.00 0.00 0.00 57 1013.8
20260508150006 74 0 0.0 0.0 0.00 0.00 0.00 56 1013.9
20260508144503 74 130 1.0 2.0 0.00 0.00 0.00 57 1013.9
20260508143006 75 0 0.0 0.0 0.00 0.00 0.00 56 1014.1
20260508141503 75 135 1.0 4.0 0.00 0.00 0.00 56 1014.1
20260508140006 76 0 0.0 0.0 0.00 0.00 0.00 56 1014.2
20260508134505 76 0 0.0 0.0 0.00 0.00 0.00 57 1014.3
20260508133007 76 85 3.0 9.0 0.00 0.00 0.00 57 1014.5
20260508131504 75 97 2.0 6.0 0.00 0.00 0.00 57 1014.7
20260508130006 76 123 2.0 6.0 0.00 0.00 0.00 57 1014.5
20260508124504 76 90 1.0 4.0 0.00 0.00 0.00 58 1014.7
20260508123007 76 103 3.0 7.0 0.00 0.00 0.00 58 1014.7
20260508121504 76 111 1.0 2.0 0.00 0.00 0.00 60 1014.8
20260508120006 76 104 3.0 6.0 0.00 0.00 0.00 58 1014.8
20260508114504 77 95 2.0 5.0 0.00 0.00 0.00 59 1014.8
20260508113006 76 135 1.0 4.0 0.00 0.00 0.00 58 1015.0
20260508111504 78 135 0.0 2.0 0.00 0.00 0.00 59 1015.0
20260508110007 77 111 5.0 6.0 0.00 0.00 0.00 60 1015.1